Total_Precipitation_Accumulation
2.09 2.09 1.95 1.93 2.01 2.02 2.13 2.25 2.23 2.10 2.02 1.85 1.44 1.19 1.21 1.37 1.55 1.36 1.31 1.20 1.08 1.00 0.92 0.92 0.94 1.02 1.12 1.23 1.42 1.59 1.66 1.67 1.68 1.64 1.70 1.85 1.92 2.00
1.85 1.90 1.87 1.86 1.96 1.92 1.98 2.12 2.25 2.30 2.10 1.85 1.64 1.33 1.35 1.29 1.42 1.35 1.33 1.24 1.05 0.90 0.79 0.76 0.80 0.88 0.97 1.03 1.10 1.22 1.27 1.27 1.30 1.35 1.37 1.38 1.42 1.50
1.56 1.59 1.64 1.75 1.89 1.88 1.89 1.94 2.14 2.37 2.26 2.09 1.94 1.78 1.66 1.53 1.35 1.32 1.32 1.23 1.04 0.88 0.73 0.67 0.70 0.74 0.78 0.86 0.95 1.05 1.13 1.17 1.17 1.19 1.22 1.24 1.25 1.28
1.49 1.59 1.57 1.71 1.84 1.79 1.87 1.92 2.09 2.36 2.44 2.55 2.55 2.26 1.96 1.76 1.65 1.46 1.17 1.06 1.08 0.93 0.77 0.67 0.63 0.65 0.67 0.71 0.78 0.91 1.03 1.09 1.12 1.14 1.14 1.14 1.19 1.24
1.53 1.60 1.54 1.60 1.66 1.69 1.78 1.90 2.06 2.22 2.41 2.46 2.55 2.38 2.18 1.89 1.93 1.69 1.39 1.30 1.04 0.97 0.88 0.73 0.64 0.63 0.63 0.68 0.73 0.79 0.88 0.98 1.02 1.12 1.18 1.17 1.18 1.21
1.49 1.47 1.40 1.40 1.47 1.59 1.63 1.81 1.99 2.14 2.26 2.26 2.33 2.39 2.40 2.35 2.33 2.11 1.91 1.66 1.34 1.03 1.01 0.84 0.76 0.71 0.67 0.65 0.69 0.76 0.87 0.97 1.02 1.07 1.15 1.21 1.25 1.28
1.38 1.26 1.11 1.13 1.20 1.29 1.32 1.61 1.84 1.96 2.07 2.14 2.22 2.39 2.49 2.64 2.49 2.36 2.22 2.07 1.77 1.49 1.46 1.16 1.03 0.89 0.76 0.72 0.72 0.72 0.78 0.92 1.01 1.08 1.14 1.17 1.24 1.33
1.31 1.32 1.18 1.03 0.98 1.05 1.07 1.22 1.47 1.63 1.82 2.06 2.20 2.40 2.49 2.47 2.61 2.57 2.47 2.31 2.12 1.86 1.84 1.77 1.61 1.46 1.20 0.93 0.86 0.76 0.70 0.79 0.93 1.02 1.13 1.21 1.25 1.31
1.29 1.33 1.14 1.01 1.00 0.93 1.01 1.08 1.12 1.20 1.33 1.67 1.94 2.06 2.09 2.11 2.38 2.50 2.50 2.40 2.31 2.14 2.17 2.19 2.04 1.80 1.42 1.20 1.09 0.90 0.79 0.75 0.81 0.90 0.96 1.06 1.17 1.26
1.10 1.14 1.16 1.16 1.08 1.05 1.03 1.04 1.00 1.01 1.07 1.14 1.29 1.44 1.65 1.84 2.05 2.29 2.52 2.48 2.44 2.37 2.34 2.44 2.29 2.12 1.75 1.42 1.22 0.99 0.89 0.86 0.88 0.91 0.94 0.96 1.02 1.11
1.17 1.18 1.22 1.27 1.23 1.05 1.00 1.04 1.07 1.12 1.06 1.09 1.06 1.13 1.24 1.36 1.53 1.78 2.08 2.39 2.61 2.61 2.42 2.47 2.38 2.38 2.29 1.86 1.44 1.19 0.97 0.89 0.87 0.88 0.91 0.92 0.94 1.01
1.46 1.46 1.34 1.19 1.15 1.01 1.00 1.09 1.07 1.09 1.03 1.02 0.98 0.95 0.96 1.10 1.23 1.40 1.62 1.92 2.19 2.34 2.29 2.39 2.53 2.79 2.87 2.38 1.80 1.35 1.13 1.07 0.96 0.86 0.85 0.86 0.89 0.83
1.40 1.38 1.27 1.07 0.95 0.91 0.88 0.95 1.01 0.96 0.96 1.02 1.08 1.09 1.08 1.12 1.16 1.23 1.46 1.63 1.74 1.69 1.69 2.02 2.21 2.45 2.76 2.64 2.35 1.96 1.63 1.35 1.14 1.00 0.96 0.97 0.97 0.90
1.49 1.44 1.29 1.11 1.00 0.93 0.81 0.82 0.85 0.79 0.84 0.97 1.05 1.09 1.10 1.10 1.16 1.26 1.42 1.59 1.73 1.66 1.61 1.81 1.97 2.14 2.21 2.19 2.17 2.18 2.14 1.92 1.62 1.37 1.19 1.23 1.19 1.20
1.31 1.43 1.31 1.06 0.90 0.84 0.81 0.73 0.64 0.64 0.75 0.84 0.91 0.97 0.99 1.03 1.15 1.30 1.48 1.58 1.60 1.55 1.46 1.58 1.76 1.91 2.00 1.93 1.85 1.86 1.93 1.90 1.81 1.75 1.70 1.56 1.40 1.33
1.17 1.17 1.14 1.02 0.86 0.86 0.87 0.77 0.67 0.73 0.78 0.76 0.81 0.90 0.94 1.02 1.14 1.22 1.34 1.50 1.61 1.52 1.47 1.55 1.70 1.85 1.84 1.80 1.73 1.64 1.70 1.81 1.87 1.97 2.01 1.93 1.79 1.67
1.12 1.17 1.14 1.16 1.06 1.01 1.03 0.98 0.94 0.97 0.94 0.88 0.89 0.92 0.98 1.03 1.08 1.17 1.28 1.36 1.46 1.47 1.45 1.52 1.62 1.74 1.71 1.68 1.65 1.53 1.52 1.52 1.66 1.92 2.11 2.09 1.89 1.77
1.00 1.12 1.24 1.26 1.24 1.23 1.23 1.22 1.20 1.16 1.15 1.16 1.13 1.08 1.09 1.11 1.10 1.14 1.25 1.32 1.31 1.33 1.40 1.41 1.49 1.65 1.70 1.59 1.38 1.33 1.33 1.36 1.40 1.59 1.82 1.97 1.85 1.71
0.96 1.09 1.25 1.30 1.32 1.34 1.29 1.26 1.30 1.25 1.24 1.25 1.22 1.22 1.24 1.25 1.21 1.20 1.27 1.34 1.31 1.26 1.28 1.40 1.43 1.50 1.52 1.43 1.22 1.02 1.16 1.27 1.30 1.30 1.37 1.52 1.60 1.52
1.06 1.21 1.36 1.36 1.38 1.37 1.30 1.24 1.25 1.22 1.20 1.20 1.21 1.21 1.22 1.27 1.28 1.25 1.25 1.32 1.31 1.26 1.25 1.27 1.31 1.30 1.32 1.31 1.21 1.03 0.88 1.09 1.24 1.25 1.24 1.28 1.28 1.33
1.23 1.34 1.36 1.34 1.36 1.34 1.28 1.25 1.28 1.25 1.21 1.21 1.19 1.19 1.19 1.29 1.31 1.28 1.24 1.27 1.23 1.16 1.13 1.15 1.16 1.17 1.24 1.36 1.31 1.14 1.00 0.95 1.07 1.15 1.20 1.29 1.26 1.23
1.20 1.22 1.20 1.19 1.22 1.24 1.25 1.27 1.32 1.29 1.28 1.26 1.20 1.18 1.19 1.24 1.25 1.24 1.21 1.20 1.19 1.14 1.08 1.09 1.12 1.17 1.27 1.35 1.31 1.21 1.14 1.09 1.07 1.10 1.13 1.16 1.15 1.10
1.13 1.13 1.12 1.10 1.08 1.14 1.18 1.20 1.24 1.25 1.21 1.16 1.13 1.11 1.09 1.14 1.13 1.10 1.11 1.09 1.10 1.12 1.16 1.17 1.18 1.21 1.24 1.32 1.38 1.35 1.23 1.21 1.21 1.17 1.02 0.96 0.89 0.82